Regional Weather Roundup
Issued by NWS

Home | Current Version | Previous Version | Text Only | Print | Product List | Glossary On
Versions: 1 2 3 4 5 6 7 8 9 10 11 12 13 14 15 16 17 18 19 20 21 22 23 24 25 26 27 28 29 30 31 32 33 34 35 36 37 38 39 40 41 42 43 44 45 46 47 48 49 50
109
ASUS45 KPSR 231110
RWRAZ

ARIZONA HOURLY REGIONAL WEATHER ROUNDUP
NATIONAL WEATHER SERVICE PHOENIX AZ
400 AM MST THU MAR 23 2017

NOTE: FAIR INDICATES FEW OR NO CLOUDS BELOW 12,000 FEET WITH NO
SIGNIFICANT WEATHER AND/OR OBSTRUCTIONS TO VISIBILITY.

AZZ001>003-036-231200-
NORTHWEST ARIZONA

CITY           SKY/WX    TMP DP  RH WIND       PRES   REMARKS
BULLHEAD CITY  MOCLDY    59  34  38 S15       29.82S
KINGMAN        CLEAR     42  29  59 S3        29.83S
$$

AZZ004>008-015-016-018-231200-
NORTH CENTRAL ARIZONA

CITY           SKY/WX    TMP DP  RH WIND       PRES   REMARKS
GRAND CANYON   LGT SNOW  33  33 100 SW5       29.87R FOG     WCI  29
WILLIAMS       LGT SNOW  32  32 100 S7        29.87S VSB 3/4 WCI  26
PRESCOTT       LGT RAIN  38  37  97 SE7       29.88R WCI  33
FLAGSTAFF      LGT SNOW  31  31 100 S6        29.87F VSB 3/4 WCI  25
PAYSON         DRIZZLE   39  37  93 W9        29.91F WCI  33
PAGE           LGT RAIN  46  32  58 N5        29.79F
$$

AZZ009>014-017-231200-
NORTHEAST ARIZONA

CITY           SKY/WX    TMP DP  RH WIND       PRES   REMARKS
WINSLOW        LGT RAIN  42  39  89 W8        29.89S
SAINT JOHNS    PTCLDY    48  37  65 W12       29.86F
WINDOW ROCK    CLEAR     43  31  62 S9        29.88F
SHOW LOW       MOCLDY    41  36  81 SW18G28   29.90S
$$

AZZ023-231200-
GREATER PHOENIX AREA

CITY           SKY/WX    TMP DP  RH WIND       PRES   REMARKS
PHOENIX        CLOUDY    55  48  77 N9        29.86F
BUCKEYE        CLOUDY    55  55 100 N3        29.88R
LUKE AFB       LGT RAIN  55  52  91 NE7       29.86R
DEER VALLEY    LGT RAIN  52  49  89 CALM      29.89R
SCOTTSDALE     LGT RAIN  54  47  77 N6        29.90S
MESA-GATEWAY   RAIN      52  46  82 N14       29.90S
$$

AZZ027-028-231200-
SOUTHWEST MARICOPA COUNTY AND PINAL COUNTY

CITY           SKY/WX    TMP DP  RH WIND       PRES   REMARKS
CASA GRANDE    NOT AVBL
GILA BEND      LGT RAIN  56  50  81 SE6       29.88F
$$

AZZ503-504-507>509-231200-
SOUTHEAST ARIZONA

CITY           SKY/WX    TMP DP  RH WIND       PRES   REMARKS
TUCSON         CLOUDY    62  46  55 W13       29.88F
DAVIS-MONTHAN  PTCLDY    61  46  58 W17G24    29.86F
NOGALES        CLEAR     55  46  71 SW12      29.91F
SIERRA VISTA   CLEAR     54  41  60 SW16      29.92S
DOUGLAS        CLEAR     57  32  38 SW7       29.90F
SAFFORD        CLEAR     60  42  51 N15       29.82F
$$

AZZ020-021-025-026-031-231200-
SOUTHWEST ARIZONA

CITY           SKY/WX    TMP DP  RH WIND       PRES   REMARKS
YUMA           CLEAR     56  44  64 W6        29.91R
$$

CAZ031-033-041-043-047-048-061-231200-
SOUTHERN CALIFORNIA

CITY           SKY/WX    TMP DP  RH WIND       PRES   REMARKS
DOWNTOWN L.A.  PTCLDY    55  43  63 CALM      29.99F
L.A. AIRPORT   CLEAR     55  48  77 NW7       30.01S
SAN DIEGO      MOCLDY    58  47  66 W10       30.07F
BURBANK        PTCLDY    54  37  52 N9        29.99S
ONTARIO        CLOUDY    51  47  86 W6        29.99S
RIVERSIDE      CLOUDY    51  48  89 CALM      30.00R
PALM SPRINGS   MOCLDY    62  33  33 SE16      29.90R
EL CENTRO NAS  PTCLDY    60  37  42 W21       29.93S
IMPERIAL       PTCLDY    59  41  51 W14       29.90S
BLYTHE         PTCLDY    58  38  47 CALM      29.86S
NEEDLES        MOCLDY    60  33  36 W7        29.84S
$$

NVZ020-UTZ003-231200-
SOUTHERN NEVADA-UTAH

CITY           SKY/WX    TMP DP  RH WIND       PRES   REMARKS
LAS VEGAS      MOCLDY    53  28  38 CALM      29.77S
SALT LAKE CITY RAIN      43  38  82 S7        29.73R FOG
$$

NMZ009-TXZ055-231200-
NEW MEXICO-WEST TEXAS

CITY           SKY/WX    TMP DP  RH WIND       PRES   REMARKS
ALBUQUERQUE    CLEAR     60  14  16 S15       29.85F
EL PASO        PTCLDY    66  15  14 S9        29.87F
$$


........................KEY........................
SKY/WX - SKY CONDITION/WEATHER
TMP    - TEMPERATURE IN FAHRENHEIT
DP     - DEW POINT IN FAHRENHEIT
RH     - RELATIVE HUMIDITY IN PERCENT
WIND   - DIRECTION AND SPEED IN MILES PER HOUR (MPH)
VRB    - VARIABLE WIND DIRECTION
PRES   - MEAN SEA LEVEL PRESSURE IN INCHES OF MERCURY
         F - FALLING PRESSURE   R - RISING PRESSURE
         S - STEADY PRESSURE
VSB    - VISIBILITY IN MILES
HX     - HEAT INDEX IN FAHRENHEIT
WCI    - WIND CHILL INDEX IN FAHRENHEIT
TC     - TEMPERATURE IN CELSIUS WHICH IS ALSO KNOWN AS
         TEMPERATURE IN CENTIGRADE
AFB    - AIR FORCE BASE
         LUKE AFB IS LUKE AIR FORCE BASE
         DAVIS-MONTHAN IS DAVIS-MONTHAN AIR FORCE BASE
NAS    - NAVAL AIR STATION
         EL CENTRO NAS IS EL CENTRO NAVAL AIR STATION
N/A    - NOT AVAILABLE





USA.gov is the U.S. government's official web portal to all federal, state and local government web resources and services.